Regional Weather Roundup
Issued by NWS Sterling, VA

Home | Current Version | Previous Version | Graphics & Text | Print | Product List | Glossary On
Versions: 1 2 3 4 5 6 7 8 9 10 11 12 13 14 15 16 17 18 19 20 21 22 23 24 25 26 27 28 29 30 31 32 33 34 35 36 37 38 39 40 41 42 43 44 45 46 47 48 49 50
316
ASUS41 KLWX 280210
RWRLWX

REGIONAL WEATHER ROUNDUP
NATIONAL WEATHER SERVICE BALTIMORE MD/WASHINGTON DC
900 PM EST MON FEB 27 2017

Note: "FAIR" indicates few or no clouds below 12,000 feet
with no significant weather and/or obstructions to visibility.
 TC=TEMPERATURE CELSIUS

 * =Non NWS site. Station does not report precipitation (e.g. rain,
    snow, etc.), thunder, or fog.

DCZ001-MDZ009-015-VAZ040>042-051-053>054-280300-
WASHINGTON METRO

CITY           SKY/WX    TMP DP  RH WIND       PRES   REMARKS
WASHINGTON NAT CLOUDY    51  37  58 S9        30.39R
DULLES         CLOUDY    51  29  42 S8        30.37R
ANDREWS AFB    CLOUDY    49  33  54 S12       30.38R
FT BELVOIR     CLOUDY    49  32  51 CALM      30.39R
QUANTICO       CLOUDY    51  39  63 SW6       30.40R
COLLEGE PARK*  CLOUDY    45  32  61 CALM      30.38S
LEESBURG*      CLOUDY    50  32  50 MISG      30.38R
MANASSAS*      CLOUDY    48  32  53 S5        30.38S
GAITHERSBURG*  CLOUDY    46  25  42 SE6       30.41S

$$

MDZ006>007-011-014-280300-
BALTIMORE METRO

CITY           SKY/WX    TMP DP  RH WIND       PRES   REMARKS
BWI AIRPORT    CLOUDY    48  35  60 CALM      30.38R
MD SCIENCE CTR   N/A     50  33  52 MISG      30.39R
MARTIN STATE   CLOUDY    48  39  71 CALM      30.41R
ANNAPOLIS      CLOUDY    50  35  56 S12       30.39R
FORT MEADE*    CLOUDY    45  34  65 CALM      30.40S

$$

MDZ012-015-019>023-280300-
MARYLAND EASTERN SHORE

CITY           SKY/WX    TMP DP  RH WIND       PRES   REMARKS
OCEAN CITY     CLOUDY    47  39  74 SE3       30.44F
SALISBURY      CLOUDY    48  34  58 SE5       30.44R
BAY BRIDGE AP* CLOUDY    50  34  53 S8        30.39S
CAMBRIDGE*     CLOUDY    50  32  50 SE9       30.42R
EASTON*        CLOUDY    54  28  37 S7        30.44R

$$

MDZ017>025-280300-
SOUTHERN MARYLAND

CITY           SKY/WX    TMP DP  RH WIND       PRES   REMARKS
PATUXENT RIVER CLOUDY    49  38  65 S8        30.41R
ST INIGOES     CLOUDY    52  33  48 SE6       30.40S
LEONARDTOWN*   CLOUDY    50  28  43 SE8       30.42F

$$

MDZ003>005-280300-
NORTH CENTRAL MARYLAND

CITY           SKY/WX    TMP DP  RH WIND       PRES   REMARKS
FREDERICK*     NOT AVBL
HAGERSTOWN APT CLOUDY    48  24  39 SE5       30.34R
WESTMINSTER*   CLOUDY    48  28  46 SE6       30.36S

$$

MDZ501>502-280300-
WESTERN MARYLAND

CITY           SKY/WX    TMP DP  RH WIND       PRES   REMARKS
OAKLAND*       CLOUDY    37  32  81 S8        30.28S
CUMBERLAND*    CLOUDY    45  37  76 CALM      30.37R

$$

VAZ025>031-280300-
SHENANDOAH VALLEY

CITY           SKY/WX    TMP DP  RH WIND       PRES   REMARKS
WINCHESTER*    CLOUDY    48  25  40 SW5       30.35R
FRONT ROYAL*   CLOUDY    52  27  37 CALM      30.34S
LURAY*         CLOUDY    50  30  46 S5        30.35R
NEW MARKET*    CLOUDY    46  26  44 SW5       30.34S
STAUNTON*      CLOUDY    46  29  52 CALM      30.37S
WAYNESBORO*    CLOUDY    49  21  33 SE5       30.35R

$$

WVZ021-048>050-054>055-280300-
EASTERN WEST VIRGINIA PANHANDLE

CITY           SKY/WX    TMP DP  RH WIND       PRES   REMARKS
MARTINSBURG    CLOUDY    47  24  40 CALM      30.34R
PETERSBURG*    CLOUDY    53  31  42 S7        30.33F

$$

VAZ036>039-050-280300-
CENTRAL FOOTHILLS

CITY           SKY/WX    TMP DP  RH WIND       PRES   REMARKS
CHARLOTTESVILL CLOUDY    52  25  35 N3        30.37R
CULPEPER*      CLOUDY    47  34  61 CALM      30.38S
ORANGE*        CLOUDY    50  32  50 CALM      30.39R
GORDONSVILLE*  CLOUDY    47  34  60 CALM      30.37R
WARRENTON*     CLOUDY    51  25  36 CALM      30.36F

$$

VAZ055>057-280300-
NORTH AND CENTRAL PIEDMONT

CITY           SKY/WX    TMP DP  RH WIND       PRES   REMARKS
FREDERICKSBRG* CLOUDY    51  37  57 SE5       30.38S
STAFFORD*      CLOUDY    50  35  55 CALM      30.42F

$$

NCZ024-NYZ072-PAZ021-071-VAZ022-071-280300-
OTHER REGIONAL OBSERVATIONS

CITY           SKY/WX    TMP DP  RH WIND       PRES   REMARKS
NEW YORK CITY  CLEAR     50  29  44 VRB5      30.41S
PHILADELPHIA   MOCLDY    48  30  49 CALM      30.40S
PITTSBURGH     CLOUDY    41  40  96 SE3       30.27S
ROANOKE        CLOUDY    51  29  42 N3        30.36S
RICHMOND       CLOUDY    52  32  46 E5        30.39R
RALEIGH        CLOUDY    57  33  40 CALM      30.36R

$$

ANZ530>537-280300-
MARINE OBSERVATIONS

STATION/POSITION TIME  TEMP    WIND        PRES
                       AIR SEA DIR/SP/G
                 (UTC) (F)     (DEG/KT/KT) (MB)
THOMAS PT LIGHT  0200   47 45  200/ 13/ 14   N/A
BALT KEY BRIDGE  0148   50     150/  5/  7 1029.0R
COVE POINT       0148   47     180/  9/ 10 1030.4R
LEWISETTA        0148   52 49  160/  6/  7 1029.4S
SOLOMONS ISLAND  0148          150/ 10/ 12   N/A
PINEY POINT      0148          160/ 10/ 10   N/A

$$





USA.gov is the U.S. government's official web portal to all federal, state and local government web resources and services.